Weather in Novonikolayevka

Russia / Kemerovo Oblast     56°10′05″N   86°27′50″E
temp.,
°C
wind,
m/s
gust,
m/s
humid.,
%
clouds,
%
prec.,
mm/h
press.,
hPa
HPBL,
m
17 april, sat
sat1701:00−1nw279599 4.0 1016344
04:00−3n599075 0.0 1018525
07:00−6n478752 0.0 1021521
10:00−7n458270 0.0 1023616
13:00−4n34685 0.0 1024830
16:00−3nw23605 0.0 1025933
19:00−4s22790 0.0 102522
22:00−10s34895 0.0 102447
18 april, sun
sun1801:00−10s3494100 0.0 102347
04:00−6ssw4985100 0.0 1020233
07:00−3ssw61482100 0.0 1017526
10:000sw81381100 0.0 1014941
13:00+2sw81384100 0.0 1012947
16:00+2sw71489100 0.1 1010892
19:00+2ssw71387100 0.1 1008687
22:00+1ssw71498100 1.4 1003590
19 april, mon
mon1901:00+2s61398100 2.9 998702
04:00+1wsw61298100 1.0 996986
07:00−7nw101590100 3.0 10041063
10:00−7nw101378100 0.4 10131010
13:00−5wnw81057100 0.5 10181553
16:00−4wnw8949100 0.0 10212069
19:00−5nw6959100 0.1 10231705
22:00−7nw486838 0.1 10251082
20 april, tue
tue2001:00−8wnw47665 0.1 1026779
04:00−8wnw477178 0.0 1026721
07:00−8wnw467558 0.0 1027822
10:00−6wnw5658100 0.1 10271332
13:00−4wnw4549100 0.1 10261782
16:00−3wnw5646100 0.1 10251754
19:00−3wnw4547100 0.2 10241437
22:00−5wsw236596 0.1 102461
21 april, wed
wed2101:00−5ssw246861 0.1 1024120
04:00−5ssw3670100 0.0 1023207
07:00−4sse3467100 0.0 1024243
10:00−2ssw4557100 0.0 10241238
13:00−1ssw3450100 0.2 10241434
16:00+1ssw2246100 0.3 10251471
19:00+1ne014695 0.5 10261332
22:00−2e1163100 0.1 102811